sat.trackr.live / text

‹ back to catalog

NORSAT 3

NORAD 48272 · 2021-034E

PAYLOAD ACTIVE UNKNOWN

§ Identity

Operator
Country
NOR
Launch date
2021-04-29
Launch site
FRGUI
Launch vehicle
Mass (kg)
RCS (m²)

External: N2YO · Heavens-Above · Gunter

§ Orbital elements

Epoch: 2026-09-20T23:26:24.982656Z

Period
95.62 min
Inclination
97.5210°
Eccentricity
0.0006757
Mean motion
15.05952639 rev/d
Perigee alt
543.9 km
Apogee alt
553.3 km
Semi-major
6,926.7 km
B*
2.1974e-4
RAAN
318.9403°
Arg perigee
345.5453°
Mean anomaly
14.5579°
Rev number
29,425

§ Raw data

NORSAT 31 48272U 21034E   26263.97667804  .00003139  00000+0  21974-3 0  99902 48272  97.5210 318.9403 0006757 345.5453  14.5579 15.05952639294259

JSON: /api/v1/satellites/48272 · /tle

For live sub-satellite position, see the globe view (requires WebGL).

§ Visibility from observer

Set your observer location to see the next 7 days of passes ≥ 10°. The values pass through the URL so the page stays shareable.

No JS? Fill the form by hand. The geolocation button needs JavaScript.

§ Radio — SatNOGS DB

ModeDescriptionDownlinkUplink
FM S-band telemetry 2.213 GHz

1 transmitter · refreshed weekly from db.satnogs.org